R8AHC-W5 Weather Reports


Display with metric or nautical units.
time (UTC)temp
F
wind
direction
speed
MPH
gust
MPH
rain 1hr
in
rain 24hr
in
rain mn
in
humidity
%
barometer
mb
20260901055502 51 349 13.0 0.0 0.00 0.00 0.00 53 1022.0
20260901045502 50 345 14.0 0.0 0.00 0.00 0.00 57 1021.0
20260901035502 49 345 13.0 0.0 0.00 0.00 0.00 64 1021.0
20260901025502 48 333 9.0 0.0 0.00 0.00 0.00 73 1020.0
20260901015503 46 309 7.0 0.0 0.00 0.00 0.00 75 1019.0
20260901005502 46 299 7.0 0.0 0.00 0.00 0.00 75 1019.0
20260831235502 44 293 8.0 0.0 0.00 0.00 0.00 80 1019.0
20260831225502 43 281 9.0 0.0 0.00 0.00 0.00 80 1019.0
20260831215502 43 280 9.0 0.0 0.00 0.00 0.00 80 1019.0
20260831205502 43 284 9.0 0.0 0.00 0.00 0.00 79 1019.0
20260831195502 44 288 9.0 0.0 0.00 0.00 0.00 76 1019.0
20260831185502 45 292 9.0 0.0 0.00 0.00 0.00 73 1019.0
20260831175502 45 280 8.0 0.0 0.00 0.00 0.00 71 1019.0
20260831165503 45 277 8.0 0.0 0.00 0.00 0.00 69 1019.0
20260831155501 46 286 6.0 0.0 0.00 0.00 0.00 67 1019.0
20260831145502 47 317 6.0 0.0 0.00 0.00 0.00 66 1019.0
20260831135502 52 326 10.0 0.0 0.00 0.00 0.00 58 1018.0
20260831125502 54 325 13.0 0.0 0.00 0.00 0.00 53 1018.0
20260831115502 56 317 16.0 0.0 0.00 0.00 0.00 48 1018.0
20260831105501 56 296 13.0 0.0 0.00 0.00 0.00 47 1018.0
20260831095502 54 285 13.0 0.0 0.00 0.00 0.00 50 1018.0
20260831085502 54 292 14.0 0.0 0.00 0.00 0.00 48 1018.0
20260831075502 53 293 14.0 0.0 0.00 0.00 0.00 53 1019.0
20260831065502 54 302 14.0 0.0 0.00 0.00 0.00 49 1019.0